Theta_e
320 320 320 318 320 316 316 316 316 318 320 322 324 325 333 335 337 338 337 342 344 345 345 345 344 342 342 343 343 344 345 346
321 320 320 318 316 320 312 321 320 318 319 324 325 327 327 332 335 337 337 337 340 342 343 344 344 343 343 344 343 343 343 344
319 321 322 318 317 315 317 314 319 318 320 317 323 325 326 328 334 335 337 338 338 339 340 341 342 343 343 343 344 344 344 344
319 319 321 323 321 314 318 317 312 315 320 319 319 323 324 326 328 331 333 334 338 338 339 341 342 342 342 343 343 343 343 344
316 318 318 319 321 316 319 314 320 319 321 321 318 320 323 324 327 331 332 335 338 338 339 340 340 341 342 342 342 342 343 343
318 319 317 317 318 319 320 322 322 320 319 320 319 320 320 324 326 328 335 332 335 338 339 339 340 341 341 341 342 342 343 343
316 316 317 318 319 319 319 321 322 323 322 321 319 318 320 325 326 330 329 331 331 336 339 340 340 340 341 341 342 342 343 343
316 317 317 318 319 320 320 319 319 321 320 317 320 321 320 322 323 324 326 327 326 329 339 341 340 340 340 341 341 342 342 342
316 316 317 319 319 319 319 319 319 320 320 319 318 318 319 321 324 324 326 326 326 327 329 336 341 342 341 341 341 342 342 342
314 315 319 318 317 320 320 320 319 318 320 320 321 323 325 326 325 326 326 326 326 326 328 330 335 341 342 342 342 343 342 343
315 316 317 317 326 330 330 328 321 321 320 319 321 321 322 324 324 325 327 327 328 328 330 335 338 339 342 342 342 343 344 345
313 317 320 321 330 330 331 333 327 326 321 321 319 320 322 327 325 326 327 327 328 330 334 336 339 340 340 340 341 341 342 342
312 318 318 319 328 332 330 329 332 332 333 322 321 324 327 327 325 326 328 329 333 333 333 335 337 338 338 339 340 339 341 343
312 317 317 324 328 335 330 331 332 332 335 336 323 325 326 328 333 333 332 332 334 332 331 332 337 340 341 342 342 343 345 346
313 314 316 323 329 330 329 331 332 331 335 340 328 329 334 338 341 340 338 336 337 336 337 337 334 340 343 345 346 346 347 347
318 319 322 325 328 328 330 331 333 333 340 345 339 348 351 353 354 354 353 353 351 348 349 349 349 348 345 339 342 344 344 344
315 318 326 327 326 330 329 335 332 338 345 344 349 350 351 350 350 348 348 347 347 347 346 344 342 341 339 339 338 340 347 345
314 317 324 325 325 329 329 330 330 336 341 341 342 342 344 344 344 345 345 345 344 340 338 336 334 334 333 334 333 333 334 334
316 317 322 325 326 328 328 329 331 334 337 339 340 340 339 338 337 336 336 335 335 334 334 335 335 334 334 335 335 335 334 335
Wind_Speed
10 5 17 6 10 9 4 1 2 5 7 6 6 9 14 26 29 29 38 43 49 53 57 59 57 56 58 55 52 51 50 48
18 7 9 11 9 4 1 6 6 4 4 6 8 14 14 10 22 34 38 44 49 49 52 56 60 59 58 59 54 52 49 51
9 11 19 4 6 3 6 6 6 0 7 8 10 13 15 17 30 38 40 45 48 51 55 56 55 58 58 58 58 56 56 54
6 2 7 22 12 8 6 10 5 4 9 3 10 9 13 18 29 37 36 38 41 46 50 50 53 54 57 57 56 56 55 54
5 6 2 5 10 8 14 2 16 8 8 14 3 8 15 19 23 20 26 32 36 36 39 46 50 52 54 55 56 55 54 54
4 1 4 6 5 9 15 13 15 18 11 4 6 8 9 21 28 26 22 19 24 34 40 45 49 51 52 52 52 53 53 53
2 11 6 11 14 12 12 21 15 17 21 11 8 10 17 34 29 22 20 21 17 21 33 43 47 49 51 49 49 50 50 52
3 9 12 11 13 15 14 11 8 20 14 8 19 27 18 27 25 28 29 28 26 22 30 39 45 47 50 48 48 47 46 49
4 4 10 13 9 14 8 8 11 16 10 8 9 11 18 32 37 36 38 39 38 30 28 34 44 45 47 48 49 46 47 46
4 4 7 4 8 8 17 18 15 9 7 12 16 32 39 42 43 42 40 40 37 29 32 34 40 46 46 46 48 49 49 49
4 5 11 18 4 5 2 8 8 15 10 9 29 22 21 26 32 38 32 31 19 22 23 27 34 40 44 46 46 46 48 50
1 6 7 1 2 10 3 6 10 8 16 17 9 7 9 38 31 32 31 29 23 23 21 29 33 37 40 41 42 48 47 46
12 6 7 4 9 8 7 7 17 14 19 18 10 20 37 24 19 23 21 19 20 14 10 21 29 33 36 39 43 41 43 43
7 6 18 2 7 4 4 14 18 24 28 27 30 28 28 14 14 15 17 14 11 11 11 12 16 19 22 28 29 34 36 37
10 7 6 12 13 14 15 16 18 24 30 25 28 24 20 18 15 13 13 12 10 8 8 8 3 8 14 19 23 24 28 32
9 9 9 15 8 8 9 11 14 14 8 10 21 21 25 25 24 21 21 21 18 16 16 16 12 9 6 6 15 20 24 25
8 17 4 8 4 4 6 1 3 9 13 18 28 28 28 27 26 23 24 22 19 18 17 16 14 12 9 8 9 9 9 17
9 12 7 3 3 6 2 8 11 21 27 24 27 31 30 29 26 21 19 16 15 16 14 15 13 13 14 14 15 14 15 16
16 27 19 10 7 9 7 16 18 22 28 28 27 27 29 30 27 24 22 19 17 15 13 12 11 10 11 14 16 17 18 19
Wind_Direction
182 160 172 193 194 176 80 272 25 219 309 307 188 212 213 225 229 224 220 219 223 224 225 229 230 227 229 230 231 233 232 233
203 129 192 162 160 141 34 196 244 275 248 223 202 202 201 216 219 228 226 226 226 225 225 228 232 234 231 231 231 232 234 236
127 200 195 154 179 111 148 167 203 24 253 210 210 219 214 210 212 228 231 233 231 228 230 233 231 231 234 233 232 233 236 238
200 201 226 214 199 156 162 222 248 181 245 210 231 203 200 220 230 237 240 246 241 236 227 224 226 227 233 235 234 236 236 238
48 303 164 192 214 184 216 114 219 200 243 245 206 173 233 247 254 235 239 245 242 233 220 225 227 227 232 235 238 238 237 238
217 300 355 306 275 204 207 225 232 231 260 275 289 248 246 241 244 237 236 250 248 236 226 225 230 231 232 235 237 237 237 237
246 285 252 247 255 264 233 225 221 240 240 238 240 234 232 243 239 236 250 244 249 249 235 226 225 230 233 237 234 234 235 237
278 267 296 281 264 256 248 240 258 263 254 212 216 227 234 251 246 242 244 244 255 260 243 233 228 230 231 232 236 234 236 240
262 305 320 297 254 234 231 201 211 242 230 212 238 219 220 237 244 246 250 258 262 260 252 243 233 233 232 235 233 235 238 237
239 313 245 245 311 283 240 233 215 223 235 205 220 237 240 241 241 248 255 259 259 255 257 248 242 236 239 235 238 238 238 236
200 213 297 304 345 22 59 287 261 220 215 214 230 256 264 248 253 250 255 251 255 271 268 250 236 234 236 234 236 236 234 235
160 205 228 259 152 264 194 254 13 325 222 223 182 219 250 262 256 254 250 249 264 263 256 242 237 234 236 235 235 237 239 239
228 249 279 241 306 305 196 288 320 318 290 283 193 219 235 249 253 241 234 242 233 233 249 235 231 236 242 241 239 250 245 240
208 235 237 22 315 203 333 318 308 301 283 273 239 219 227 241 196 192 193 194 205 216 221 232 234 235 240 248 259 249 246 246
199 214 234 179 222 278 296 286 303 293 290 274 244 216 181 156 148 147 142 137 130 122 105 90 93 229 238 242 249 254 256 259
274 261 224 227 265 284 303 289 303 289 279 206 185 150 135 129 120 115 107 101 98 99 91 85 73 62 47 288 270 269 267 267
286 257 224 192 233 281 305 240 81 89 100 106 125 118 113 109 108 104 100 95 88 80 73 66 55 44 30 9 353 341 308 268
233 244 216 220 212 159 150 100 83 92 92 91 95 102 105 99 99 97 91 88 80 70 58 47 30 15 5 352 336 325 314 309
257 270 259 163 157 135 124 97 90 87 87 88 90 95 96 95 90 89 85 78 68 56 40 25 13 4 347 326 318 314 301 294